Regional Weather Roundup
Issued by NWS

Home | Current Version | Previous Version | Graphics & Text | Print | Product List | Glossary On
Versions: 1 2 3 4 5 6 7 8 9 10 11 12 13 14 15 16 17 18 19 20 21 22 23 24 25 26 27 28 29 30 31 32 33 34 35 36 37 38 39 40 41 42 43 44 45 46 47 48 49 50
000
ASUS43 KIND 132109
RWRIN

WEATHER ROUNDUP FOR INDIANA
NATIONAL WEATHER SERVICE INDIANAPOLIS IN
400 PM EST SAT FEB 13 2016

NOTE: "FAIR" INDICATES FEW OR NO CLOUDS BELOW 12,000 FEET WITH NO
SIGNIFICANT WEATHER AND/OR OBSTRUCTIONS TO VISIBILITY.

* - STATION DOES NOT REPORT WEATHER SUCH AS PRECIPITATION OR FOG.

+ - STATION NOT QUALITY CONTROLLED BY THE NATIONAL WEATHER SERVICE.
    USE DATA WITH CAUTION...ESPECIALLY DEWPOINT AND RELATIVE
    HUMIDITY OBSERVATIONS.

INZ001>003-010>013-019-020-132200-
NORTHWEST INDIANA

CITY           SKY/WX    TMP DP  RH WIND       PRES   REMARKS
GARY /AIRPORT/ MOSUNNY   18 -13  25 N7        30.55S WCI   8
KNOX *+        SUNNY     14   0  52 NW8       30.53S WCI   3
LA PORTE +     CLOUDY    15   4  63 NW12      30.53S WCI   1
MICHIGAN CITY+ CLOUDY    14   3  62 NW13      30.54S WCI   0
MONTICELLO +   SUNNY     18  -8  30 NW9       30.52S WCI   7
RENSSELAER +   SUNNY     19  -9  27 NW8       30.53S WCI   9
VALPARAISO     SUNNY     16  -3  43 NW8       30.52F WCI   5

$$

LMZ046-743>745-132200-
SOUTHERN LAKE MICHIGAN

STATION/POSITION TIME  TEMP    WIND        PRES    WAVE
                       AIR SEA DIR/SP/G            HT
                 (UTC) (F)     (DEG/KT/KT) (MB)    (FT)
BURNS HARBOR     2000   13     330/  3/ 11 1034.9F
MICHIGAN CITY    2000   13     260/ 13/ 16   N/A

$$

INZ004-005-014>016-021>024-132200-
NORTH CENTRAL INDIANA

CITY           SKY/WX    TMP DP  RH WIND       PRES   REMARKS
ELKHART        LGT SNOW  14   7  73 MISG      30.49S VSB 1
GOSHEN         CLOUDY    14   7  73 W14       30.48S WCI  -1
LOGANSPORT +   SUNNY     18  -6  35 NW8       30.53S WCI   7
PERU/GRISSOM   SUNNY     16  -3  42 NW9       30.49S WCI   5
ROCHESTER +    SUNNY     18  -6  35 NW9       30.52R WCI   6
SOUTH BEND     LGT SNOW  12   6  77 W12       30.51R WCI  -2
WARSAW +       MOSUNNY   14   3  62 W16       30.49S WCI  -2

$$

INZ006>009-017-018-025>027-132200-
NORTHEAST INDIANA

CITY           SKY/WX    TMP DP  RH WIND       PRES   REMARKS
ANGOLA *+      CLOUDY    12   7  79 NW13      30.43R WCI  -3
AUBURN +       PTSUNNY   18   5  57 W13G18    30.46S WCI   4
FORT WAYNE     PTSUNNY   15   2  56 NW13      30.49S WCI   1
HUNTINGTON +   MOSUNNY   16  -3  43 NW9       30.49S WCI   4

$$

INZ028-029-035-036-043>045-051>053-132200-
WEST CENTRAL INDIANA

CITY           SKY/WX    TMP DP  RH WIND       PRES   REMARKS
CRAWFORDSVL +  SUNNY     16  -5  39 W3        30.52F
GREENCASTLE +  SUNNY     19 -11  25 N6        30.52F WCI  11
LAFAYETTE      SUNNY     18  -5  36 NW12G21   30.53F WCI   5
TERRE HAUTE    SUNNY     20  -2  38 N9        30.55F WCI   9

$$

INZ030>032-037>040-046>048-054>057-064-065-132200-
CENTRAL INDIANA

CITY           SKY/WX    TMP DP  RH WIND       PRES   REMARKS
ANDERSON       SUNNY     18   0  45 W12       30.50F WCI   5
FISHERS *+     SUNNY     18   0  45 N8        30.51S WCI   7
FRANKFORT +    SUNNY     20 -20  16 NW7G16    30.52S WCI  11
GREENWOOD *+   SUNNY     21   3  45 N3        30.50F
INDIANAPOLIS   MOSUNNY   19  -6  33 NW3       30.50F
-EAGLE CREEK   SUNNY     19  -3  38 W7        30.50F WCI  10
KOKOMO *+      SUNNY     18   0  45 NW10G18   30.50S WCI   6
MARION +       MOSUNNY   15  -7  36 NW10      30.50S WCI   3
MT COMFORT *+  SUNNY     19  -4  35 W8        30.49F WCI   9
SHELBYVILLE    SUNNY     20   0  41 W9        30.50F WCI   9
ZIONSVILLE +   SUNNY     18  -1  43 W9        30.50F WCI   7

$$

INZ033-034-041-042-049-050-058-059-132200-
EAST CENTRAL INDIANA

CITY           SKY/WX    TMP DP  RH WIND       PRES   REMARKS
MUNCIE         SUNNY     17   0  47 NW13      30.48F WCI   4

$$

INZ060-061-067>069-081>083-085>088-132200-
SOUTHWEST INDIANA

CITY           SKY/WX    TMP DP  RH WIND       PRES   REMARKS
EVANSVILLE     SUNNY     26   0  32 NE7       30.56F WCI  18
HUNTINGBURG *+ SUNNY     25   1  36 W8        30.55S WCI  16
WASHINGTON +   CLOUDY    22  -4  31 NW7       30.55S WCI  14

$$

INZ062-063-066-070>080-084-089>092-132200-
SOUTH CENTRAL AND SOUTHEAST INDIANA

CITY           SKY/WX    TMP DP  RH WIND       PRES   REMARKS
BEDFORD +      SUNNY     23  -2  33 NW5       30.51F WCI  17
BLOOMINGTON    SUNNY     22  -2  35 VRB6      30.50F WCI  14
MADISON *+     SUNNY     23   1  39 N3        30.51F
NORTH VERNON + SUNNY     21   0  39 CALM      30.51F
SEYMOUR +      SUNNY     25   0  33 N3        30.52F

$$




USA.gov is the U.S. government's official web portal to all federal, state and local government web resources and services.